Regional Weather Roundup
Issued by NWS

Home | Current Version | Previous Version | Graphics & Text | Print | Product List | Glossary On
Versions: 1 2 3 4 5 6 7 8 9 10 11 12 13 14 15 16 17 18 19 20 21 22 23 24 25 26 27 28 29 30 31 32 33 34 35 36 37 38 39 40 41 42 43 44 45 46 47 48 49 50
000
ASUS43 KDTX 270110
RWRMI
MICHIGAN HOURLY REGIONAL WEATHER ROUNDUP
NATIONAL WEATHER SERVICE DETROIT/PONTIAC MI
ISSUED BY NATIONAL WEATHER SERVICE GRAND RAPIDS MI
900 PM EDT FRI MAY 26 2017

NOTE: "FAIR" INDICATES FEW OR NO CLOUDS BELOW 12,000 FEET WITH NO
SIGNIFICANT WEATHER AND/OR OBSTRUCTION TO VISIBILITY.

MIZ047>049-052>055-059>063-066>070-074>076-081>083-270200-
SOUTHEAST LOWER MICHIGAN

CITY           SKY/WX    TMP DP  RH WIND       PRES   REMARKS
ADRIAN         PTCLDY    63  57  81 SW3       29.87S
ALMA           CLOUDY    63  55  76 S5        29.87S
ANN ARBOR      CLOUDY    64  55  72 N6        29.86F
BAD AXE        CLEAR     60  54  79 CALM      29.88R
DETROIT CITY   MOCLDY    65  53  65 CALM      29.87S
DETROIT        CLOUDY    67  52  58 SE3       29.88S
FLINT          PTCLDY    64  52  64 CALM      29.87S
GROSSE ILE     CLOUDY    60  56  87 S3        29.87S
HILLSDALE      CLOUDY    61  55  82 CALM      29.88R
HOWELL         MOCLDY    62  53  73 CALM      29.88S

CITY           SKY/WX    TMP DP  RH WIND       PRES   REMARKS
JACKSON        CLOUDY    63  58  83 CALM      29.87S
LANSING        CLOUDY    64  53  67 E3        29.87S
MASON          CLOUDY    64  56  74 CALM      29.87S
MONROE         MOCLDY    63  56  78 CALM      29.85F
MT. CLEMENS    MOCLDY    58  58  99 S3        29.86S
PONTIAC        MOCLDY    64  52  64 CALM      29.86S
PORT HOPE        N/A     54  52  93 E3        29.87R
PORT HURON     MOCLDY    57  54  88 CALM      29.89R
TRI CITIES     CLOUDY    66  55  67 S3        29.86S
YPSILANTI      CLOUDY    66  56  70 CALM      29.88S
$$
MIZ043>046-050>051-056>058-064>065-071>073-077>080-270200-
SOUTHWEST LOWER MICHIGAN

CITY           SKY/WX    TMP DP  RH WIND       PRES   REMARKS
BATTLE CREEK   CLOUDY    66  58  75 E5        29.87R
BENTON HARBOR  RAIN      58  54  86 CALM      29.85R FOG
BIG RAPIDS     CLOUDY    65  53  64 W6        29.86R
COLDWATER      CLOUDY    65  58  77 CALM      29.86S
HOLLAND        LGT RAIN  58  53  84 NE3       29.86F
GRAND RAPIDS   CLOUDY    66  56  70 S5        29.86S
KALAMAZOO      LGT RAIN  66  56  70 E3        29.84F
MARSHALL       CLOUDY    64  58  79 CALM      29.87R
MOUNT PLEASANT CLOUDY    65  52  62 SW3       29.85S
MUSKEGON       LGT RAIN  59  51  75 CALM      29.86F
STURGIS        RAIN      62  56  81 E6        29.82F
$$
MIZ016>042-270200-
NORTHERN LOWER MICHIGAN

CITY           SKY/WX    TMP DP  RH WIND       PRES   REMARKS
ALPENA         PTCLDY    59  53  80 S6        29.86R
BEAVER ISLAND  CLOUDY    55  50  81 CALM      29.86S
BELLAIRE       CLEAR     60  51  70 CALM      29.87R
CADILLAC       PTCLDY    62  54  73 N6        29.86R
CHARLEVOIX     PTCLDY    56  50  81 CALM      29.89S
GAYLORD        CLEAR     65  52  62 NW5       29.86R
HOUGHTON LAKE  CLOUDY    64  55  72 CALM      29.86R
MANISTEE       MOCLDY    51  49  92 W6        29.86S
OSCODA         PTCLDY    60  52  74 CALM      29.87R
PELLSTON       CLEAR     60  50  69 NW7       29.86R
TRAVERSE CITY  MOCLDY    57  50  77 CALM      29.85R
LUDINGTON      CLOUDY    53  51  93 CALM      29.86F
$$
MIZ007>008-015-270200-
EASTERN UPPER MICHIGAN

CITY           SKY/WX    TMP DP  RH WIND       PRES   REMARKS
KINROSS        CLOUDY    64  51  62 SW3       29.85R
MACKINAC ISLAN CLEAR     56  50  79 W7        29.85S
NEWBERRY       CLEAR     63  52  67 S7        29.84R
S. S. MARIE    CLEAR     63  51  65 W3        29.83R
$$
MIZ004>006-011>014-085-270200-
CENTRAL UPPER MICHIGAN

CITY           SKY/WX    TMP DP  RH WIND       PRES   REMARKS
MANISTIQUE     CLOUDY    57  48  72 SW5       29.84R
ESCANABA       MOCLDY    59  51  75 CALM      29.84S
MENOMINEE      CLOUDY    62  51  67 S6        29.85S
SAWYER-GWINN   CLOUDY    64  50  59 S9        29.83S
$$
MIZ001>003-009>011-084-270200-
WESTERN UPPER MICHIGAN

CITY           SKY/WX    TMP DP  RH WIND       PRES   REMARKS
IRON MOUNTAIN  CLOUDY    64  53  67 SE7       29.82R
HOUGHTON       CLOUDY    57  47  69 E10       29.79R
COPPER HARBOR    N/A     57  48  72 SW12G20   29.78S
IRONWOOD       CLEAR     68  55  63 S6        29.77R
$$

ABBREVIATIONS USED IN REMARKS
   TC - TEMPERATURE IN CELSIUS
  WCI - WIND CHILL INDEX
   HX - HEAT INDEX
  VSB - VISIBILITY




USA.gov is the U.S. government's official web portal to all federal, state and local government web resources and services.